Year,Month,Day,Hour,Minute,Value (Times are PST for temperature in C)
2018,09,26,00,00,10.30
2018,09,26,00,01,10.30
2018,09,26,00,02,10.40
2018,09,26,00,03,10.50
2018,09,26,00,04,10.50
2018,09,26,00,05,10.60
2018,09,26,00,06,10.70
2018,09,26,00,07,10.80
2018,09,26,00,08,10.80
2018,09,26,00,09,10.90
2018,09,26,00,10,11.00
2018,09,26,00,11,11.10
2018,09,26,00,12,11.20
2018,09,26,00,13,11.20
2018,09,26,00,14,11.30
2018,09,26,00,15,11.30
2018,09,26,00,16,11.30
2018,09,26,00,17,11.30
2018,09,26,00,18,11.30
2018,09,26,00,19,11.40
2018,09,26,00,20,11.40
2018,09,26,00,21,11.40
2018,09,26,00,22,11.40
2018,09,26,00,23,11.40
2018,09,26,00,24,11.40
2018,09,26,00,25,11.40
2018,09,26,00,26,11.40
2018,09,26,00,27,11.50
2018,09,26,00,28,11.50
2018,09,26,00,29,11.50
2018,09,26,00,30,11.50
2018,09,26,00,31,11.50
2018,09,26,00,32,11.50
2018,09,26,00,33,11.50
2018,09,26,00,34,11.50
2018,09,26,00,35,11.40
2018,09,26,00,36,11.40
2018,09,26,00,37,11.40
2018,09,26,00,38,11.40
2018,09,26,00,39,11.40
2018,09,26,00,40,11.40
2018,09,26,00,41,11.40
2018,09,26,00,42,11.40
2018,09,26,00,43,11.40
2018,09,26,00,44,11.40
2018,09,26,00,45,11.40
2018,09,26,00,46,11.30
2018,09,26,00,47,11.30
2018,09,26,00,48,11.30
2018,09,26,00,49,11.30
2018,09,26,00,50,11.30
2018,09,26,00,51,11.30
2018,09,26,00,52,11.20
2018,09,26,00,53,11.20
2018,09,26,00,54,11.20
2018,09,26,00,55,11.20
2018,09,26,00,56,11.20
2018,09,26,00,57,11.30
2018,09,26,00,58,11.30
2018,09,26,00,59,11.30
2018,09,26,01,00,11.30
2018,09,26,01,01,11.30
2018,09,26,01,02,11.30
2018,09,26,01,03,11.30
2018,09,26,01,04,11.30
2018,09,26,01,05,11.30
2018,09,26,01,06,11.30
2018,09,26,01,07,11.30
2018,09,26,01,08,11.30
2018,09,26,01,09,11.30
2018,09,26,01,10,11.30
2018,09,26,01,11,11.30
2018,09,26,01,12,11.20
2018,09,26,01,13,11.20
2018,09,26,01,14,11.20
2018,09,26,01,15,11.20
2018,09,26,01,16,11.20
2018,09,26,01,17,11.30
2018,09,26,01,18,11.30
2018,09,26,01,19,11.30
2018,09,26,01,20,11.30
2018,09,26,01,21,11.30
2018,09,26,01,22,11.30
2018,09,26,01,23,11.30
2018,09,26,01,24,11.30
2018,09,26,01,25,11.30
2018,09,26,01,26,11.30
2018,09,26,01,27,11.30
2018,09,26,01,28,11.30
2018,09,26,01,29,11.30
2018,09,26,01,30,11.30
2018,09,26,01,31,11.40
2018,09,26,01,32,11.40
2018,09,26,01,33,11.40
2018,09,26,01,34,11.40
2018,09,26,01,35,11.40
2018,09,26,01,36,11.40
2018,09,26,01,37,11.50
2018,09,26,01,38,11.50
2018,09,26,01,39,11.50
2018,09,26,01,40,11.50
2018,09,26,01,41,11.50
2018,09,26,01,42,11.50
2018,09,26,01,43,11.50
2018,09,26,01,44,11.50
2018,09,26,01,45,11.50
2018,09,26,01,46,11.50
2018,09,26,01,47,11.50
2018,09,26,01,48,11.50
2018,09,26,01,49,11.50
2018,09,26,01,50,11.40
2018,09,26,01,51,11.40
2018,09,26,01,52,11.40
2018,09,26,01,53,11.40
2018,09,26,01,54,11.40
2018,09,26,01,55,11.40
2018,09,26,01,56,11.40
2018,09,26,01,57,11.40
2018,09,26,01,58,11.40
2018,09,26,01,59,11.40
2018,09,26,02,00,11.40
2018,09,26,02,01,11.40
2018,09,26,02,02,11.40
2018,09,26,02,03,11.40
2018,09,26,02,04,11.40
2018,09,26,02,05,11.40
2018,09,26,02,06,11.40
2018,09,26,02,07,11.40
2018,09,26,02,08,11.40
2018,09,26,02,09,11.40
2018,09,26,02,10,11.40
2018,09,26,02,11,11.40
2018,09,26,02,12,11.40
2018,09,26,02,13,11.40
2018,09,26,02,14,11.40
2018,09,26,02,15,11.40
2018,09,26,02,16,11.40
2018,09,26,02,17,11.40
2018,09,26,02,18,11.40
2018,09,26,02,19,11.40
2018,09,26,02,20,11.40
2018,09,26,02,21,11.40
2018,09,26,02,22,11.40
2018,09,26,02,23,11.40
2018,09,26,02,24,11.50
2018,09,26,02,25,11.50
2018,09,26,02,26,11.50
2018,09,26,02,27,11.50
2018,09,26,02,28,11.50
2018,09,26,02,29,11.50
2018,09,26,02,30,11.50
2018,09,26,02,31,11.50
2018,09,26,02,32,11.50
2018,09,26,02,33,11.50
2018,09,26,02,34,11.40
2018,09,26,02,35,11.50
2018,09,26,02,36,11.50
2018,09,26,02,37,11.50
2018,09,26,02,38,11.50
2018,09,26,02,39,11.50
2018,09,26,02,40,11.50
2018,09,26,02,41,11.50
2018,09,26,02,42,11.50
2018,09,26,02,43,11.50
2018,09,26,02,44,11.50
2018,09,26,02,45,11.50
2018,09,26,02,46,11.60
2018,09,26,02,47,11.60
2018,09,26,02,48,11.60
2018,09,26,02,49,11.60
2018,09,26,02,50,11.70
2018,09,26,02,51,11.70
2018,09,26,02,52,11.70
2018,09,26,02,53,11.70
2018,09,26,02,54,11.60
2018,09,26,02,55,11.60
2018,09,26,02,56,11.60
2018,09,26,02,57,11.60
2018,09,26,02,58,11.60
2018,09,26,02,59,11.60
2018,09,26,03,00,11.60
2018,09,26,03,01,11.60
2018,09,26,03,02,11.60
2018,09,26,03,03,11.50
2018,09,26,03,04,11.50
2018,09,26,03,05,11.50
2018,09,26,03,06,11.50
2018,09,26,03,07,11.40
2018,09,26,03,08,11.40
2018,09,26,03,09,11.40
2018,09,26,03,10,11.30
2018,09,26,03,11,11.30
2018,09,26,03,12,11.20
2018,09,26,03,13,11.20
2018,09,26,03,14,11.20
2018,09,26,03,15,11.10
2018,09,26,03,16,11.10
2018,09,26,03,17,11.10
2018,09,26,03,18,11.10
2018,09,26,03,19,11.10
2018,09,26,03,20,11.10
2018,09,26,03,21,11.10
2018,09,26,03,22,11.10
2018,09,26,03,23,11.10
2018,09,26,03,24,11.10
2018,09,26,03,25,11.10
2018,09,26,03,26,11.10
2018,09,26,03,27,11.00
2018,09,26,03,28,11.00
2018,09,26,03,29,10.90
2018,09,26,03,30,10.90
2018,09,26,03,31,10.80
2018,09,26,03,32,10.80
2018,09,26,03,33,10.80
2018,09,26,03,34,10.80
2018,09,26,03,35,10.70
2018,09,26,03,36,10.70
2018,09,26,03,37,10.70
2018,09,26,03,38,10.70
2018,09,26,03,39,10.70
2018,09,26,03,40,10.80
2018,09,26,03,41,10.70
2018,09,26,03,42,10.80
2018,09,26,03,43,10.80
2018,09,26,03,44,10.80
2018,09,26,03,45,10.80
2018,09,26,03,46,10.80
2018,09,26,03,47,10.70
2018,09,26,03,48,10.70
2018,09,26,03,49,10.80
2018,09,26,03,50,10.80
2018,09,26,03,51,10.80
2018,09,26,03,52,10.70
2018,09,26,03,53,10.70
2018,09,26,03,54,10.70
2018,09,26,03,55,10.70
2018,09,26,03,56,10.70
2018,09,26,03,57,10.70
2018,09,26,03,58,10.70
2018,09,26,03,59,10.70
2018,09,26,04,00,10.70
2018,09,26,04,01,10.70
2018,09,26,04,02,10.70
2018,09,26,04,03,10.70
2018,09,26,04,04,10.70
2018,09,26,04,05,10.70
2018,09,26,04,06,10.70
2018,09,26,04,07,10.70
2018,09,26,04,08,10.60
2018,09,26,04,09,10.60
2018,09,26,04,10,10.50
2018,09,26,04,11,10.50
2018,09,26,04,12,10.40
2018,09,26,04,13,10.40
2018,09,26,04,14,10.30
2018,09,26,04,15,10.20
2018,09,26,04,16,10.20
2018,09,26,04,17,10.20
2018,09,26,04,18,10.20
2018,09,26,04,19,10.20
2018,09,26,04,20,10.20
2018,09,26,04,21,10.30
2018,09,26,04,22,10.30
2018,09,26,04,23,10.30
2018,09,26,04,24,10.30
2018,09,26,04,25,10.30
2018,09,26,04,26,10.30
2018,09,26,04,27,10.30
2018,09,26,04,28,10.40
2018,09,26,04,29,10.40
2018,09,26,04,30,10.50
2018,09,26,04,31,10.50
2018,09,26,04,32,10.60
2018,09,26,04,33,10.60
2018,09,26,04,34,10.70
2018,09,26,04,35,10.70
2018,09,26,04,36,10.70
2018,09,26,04,37,10.70
2018,09,26,04,38,10.80
2018,09,26,04,39,10.80
2018,09,26,04,40,10.70
2018,09,26,04,41,10.70
2018,09,26,04,42,10.70
2018,09,26,04,43,10.70
2018,09,26,04,44,10.60
2018,09,26,04,45,10.60
2018,09,26,04,46,10.60
2018,09,26,04,47,10.50
2018,09,26,04,48,10.50
2018,09,26,04,49,10.40
2018,09,26,04,50,10.40
2018,09,26,04,51,10.40
2018,09,26,04,52,10.30
2018,09,26,04,53,10.30
2018,09,26,04,54,10.30
2018,09,26,04,55,10.30
2018,09,26,04,56,10.40
2018,09,26,04,57,10.40
2018,09,26,04,58,10.50
2018,09,26,04,59,10.60
2018,09,26,05,00,10.60
2018,09,26,05,01,10.70
2018,09,26,05,02,10.70
2018,09,26,05,03,10.70
2018,09,26,05,04,10.80
2018,09,26,05,05,10.80
2018,09,26,05,06,10.80
2018,09,26,05,07,10.80
2018,09,26,05,08,10.90
2018,09,26,05,09,10.90
2018,09,26,05,10,10.90
2018,09,26,05,11,10.90
2018,09,26,05,12,10.90
2018,09,26,05,13,10.90
2018,09,26,05,14,11.00
2018,09,26,05,15,11.00
2018,09,26,05,16,11.00
2018,09,26,05,17,11.00
2018,09,26,05,18,11.00
2018,09,26,05,19,11.00
2018,09,26,05,20,11.00
2018,09,26,05,21,10.90
2018,09,26,05,22,10.90
2018,09,26,05,23,10.90
2018,09,26,05,24,10.80
2018,09,26,05,25,10.80
2018,09,26,05,26,10.80
2018,09,26,05,27,10.70
2018,09,26,05,28,10.70
2018,09,26,05,29,10.70
2018,09,26,05,30,10.70
2018,09,26,05,31,10.70
2018,09,26,05,32,10.60
2018,09,26,05,33,10.60
2018,09,26,05,34,10.60
2018,09,26,05,35,10.50
2018,09,26,05,36,10.50
2018,09,26,05,37,10.40
2018,09,26,05,38,10.40
2018,09,26,05,39,10.30
2018,09,26,05,40,10.30
2018,09,26,05,41,10.20
2018,09,26,05,42,10.10
2018,09,26,05,43,10.10
2018,09,26,05,44,10.00
2018,09,26,05,45,10.00
2018,09,26,05,46,9.90
2018,09,26,05,47,9.90
2018,09,26,05,48,9.80
2018,09,26,05,49,9.80
2018,09,26,05,50,9.80
2018,09,26,05,51,9.70
2018,09,26,05,52,9.70
2018,09,26,05,53,9.60
2018,09,26,05,54,9.60
2018,09,26,05,55,9.60
2018,09,26,05,56,9.50
2018,09,26,05,57,9.50
2018,09,26,05,58,9.50
2018,09,26,05,59,9.40
2018,09,26,06,00,9.40
2018,09,26,06,01,9.40
2018,09,26,06,02,9.40
2018,09,26,06,03,9.40
2018,09,26,06,04,9.40
2018,09,26,06,05,9.40
2018,09,26,06,06,9.40
2018,09,26,06,07,9.40
2018,09,26,06,08,9.40
2018,09,26,06,09,9.40
2018,09,26,06,10,9.40
2018,09,26,06,11,9.40
2018,09,26,06,12,9.40
2018,09,26,06,13,9.40
2018,09,26,06,14,9.40
2018,09,26,06,15,9.30
2018,09,26,06,16,9.30
2018,09,26,06,17,9.30
2018,09,26,06,18,9.30
2018,09,26,06,19,9.30
2018,09,26,06,20,9.30
2018,09,26,06,21,9.30
2018,09,26,06,22,9.30
2018,09,26,06,23,9.30
2018,09,26,06,24,9.30
2018,09,26,06,25,9.30
2018,09,26,06,26,9.30
2018,09,26,06,27,9.30
2018,09,26,06,28,9.30
2018,09,26,06,29,9.40
2018,09,26,06,30,9.40
2018,09,26,06,31,9.40
2018,09,26,06,32,9.40
2018,09,26,06,33,9.30
2018,09,26,06,34,9.30
2018,09,26,06,35,9.30
2018,09,26,06,36,9.30
2018,09,26,06,37,9.30
2018,09,26,06,38,9.30
2018,09,26,06,39,9.30
2018,09,26,06,40,9.30
2018,09,26,06,41,9.30
2018,09,26,06,42,9.30
2018,09,26,06,43,9.30
2018,09,26,06,44,9.30
2018,09,26,06,45,9.20
2018,09,26,06,46,9.20
2018,09,26,06,47,9.20
2018,09,26,06,48,9.20
2018,09,26,06,49,9.20
2018,09,26,06,50,9.10
2018,09,26,06,51,9.10
2018,09,26,06,52,9.10
2018,09,26,06,53,9.10
2018,09,26,06,54,9.10
2018,09,26,06,55,9.10
2018,09,26,06,56,9.10
2018,09,26,06,57,9.10
2018,09,26,06,58,9.10
2018,09,26,06,59,9.10
2018,09,26,07,00,9.10
2018,09,26,07,01,9.10
2018,09,26,07,02,9.10
2018,09,26,07,03,9.10
2018,09,26,07,04,9.10
2018,09,26,07,05,9.10
2018,09,26,07,06,9.10
2018,09,26,07,07,9.10
2018,09,26,07,08,9.10
2018,09,26,07,09,9.10
2018,09,26,07,10,9.10
2018,09,26,07,11,9.10
2018,09,26,07,12,9.10
2018,09,26,07,13,9.10
2018,09,26,07,14,9.10
2018,09,26,07,15,9.10
2018,09,26,07,16,9.10
2018,09,26,07,17,9.10
2018,09,26,07,18,9.10
2018,09,26,07,19,9.10
2018,09,26,07,20,9.00
2018,09,26,07,21,9.00
2018,09,26,07,22,9.00
2018,09,26,07,23,9.00
2018,09,26,07,24,9.00
2018,09,26,07,25,9.00
2018,09,26,07,26,8.90
2018,09,26,07,27,8.90
2018,09,26,07,28,8.90
2018,09,26,07,29,9.00
2018,09,26,07,30,9.00
2018,09,26,07,31,9.00
2018,09,26,07,32,9.10
2018,09,26,07,33,9.10
2018,09,26,07,34,9.10
2018,09,26,07,35,9.10
2018,09,26,07,36,9.10
2018,09,26,07,37,9.10
2018,09,26,07,38,9.10
2018,09,26,07,39,9.10
2018,09,26,07,40,9.20
2018,09,26,07,41,9.20
2018,09,26,07,42,9.20
2018,09,26,07,43,9.20
2018,09,26,07,44,9.20
2018,09,26,07,45,9.20
2018,09,26,07,46,9.20
2018,09,26,07,47,9.30
2018,09,26,07,48,9.30
2018,09,26,07,49,9.40
2018,09,26,07,50,9.50
2018,09,26,07,51,9.50
2018,09,26,07,52,9.60
2018,09,26,07,53,9.60
2018,09,26,07,54,9.60
2018,09,26,07,55,9.60
2018,09,26,07,56,9.60
2018,09,26,07,57,9.60
2018,09,26,07,58,9.60
2018,09,26,07,59,9.70
2018,09,26,08,00,9.70
2018,09,26,08,01,9.70
2018,09,26,08,02,9.70
2018,09,26,08,03,9.70
2018,09,26,08,04,9.70
2018,09,26,08,05,9.70
2018,09,26,08,06,9.70
2018,09,26,08,07,9.70
2018,09,26,08,08,9.70
2018,09,26,08,09,9.70
2018,09,26,08,10,9.80
2018,09,26,08,11,9.80
2018,09,26,08,12,9.80
2018,09,26,08,13,9.80
2018,09,26,08,14,9.80
2018,09,26,08,15,9.80
2018,09,26,08,16,9.80
2018,09,26,08,17,9.90
2018,09,26,08,18,9.90
2018,09,26,08,19,10.00
2018,09,26,08,20,10.00
2018,09,26,08,21,10.10
2018,09,26,08,22,10.10
2018,09,26,08,23,10.20
2018,09,26,08,24,10.20
2018,09,26,08,25,10.20
2018,09,26,08,26,10.30
2018,09,26,08,27,10.30
2018,09,26,08,28,10.40
2018,09,26,08,29,10.40
2018,09,26,08,30,10.50
2018,09,26,08,31,10.50
2018,09,26,08,32,10.60
2018,09,26,08,33,10.60
2018,09,26,08,34,10.70
2018,09,26,08,35,10.70
2018,09,26,08,36,10.80
2018,09,26,08,37,10.80
2018,09,26,08,38,10.90
2018,09,26,08,39,10.90
2018,09,26,08,40,10.90
2018,09,26,08,41,10.90
2018,09,26,08,42,10.90
2018,09,26,08,43,11.00
2018,09,26,08,44,11.00
2018,09,26,08,45,11.00
2018,09,26,08,46,11.10
2018,09,26,08,47,11.10
2018,09,26,08,48,11.20
2018,09,26,08,49,11.20
2018,09,26,08,50,11.30
2018,09,26,08,51,11.30
2018,09,26,08,52,11.40
2018,09,26,08,53,11.40
2018,09,26,08,54,11.40
2018,09,26,08,55,11.50
2018,09,26,08,56,11.50
2018,09,26,08,57,11.60
2018,09,26,08,58,11.60
2018,09,26,08,59,11.70
2018,09,26,09,00,11.70
2018,09,26,09,01,11.80
2018,09,26,09,02,11.80
2018,09,26,09,03,11.80
2018,09,26,09,04,11.90
2018,09,26,09,05,11.90
2018,09,26,09,06,12.00
2018,09,26,09,07,12.00
2018,09,26,09,08,12.10
2018,09,26,09,09,12.20
2018,09,26,09,10,12.20
2018,09,26,09,11,12.30
2018,09,26,09,12,12.30
2018,09,26,09,13,12.40
2018,09,26,09,14,12.40
2018,09,26,09,15,12.50
2018,09,26,09,16,12.60
2018,09,26,09,17,12.70
2018,09,26,09,18,12.70
2018,09,26,09,19,12.80
2018,09,26,09,20,12.90
2018,09,26,09,21,13.00
2018,09,26,09,22,13.10
2018,09,26,09,23,13.20
2018,09,26,09,24,13.20
2018,09,26,09,25,13.30
2018,09,26,09,26,13.30
2018,09,26,09,27,13.40
2018,09,26,09,28,13.40
2018,09,26,09,29,13.50
2018,09,26,09,30,13.50
2018,09,26,09,31,13.60
2018,09,26,09,32,13.60
2018,09,26,09,33,13.70
2018,09,26,09,34,13.70
2018,09,26,09,35,13.80
2018,09,26,09,36,13.80
2018,09,26,09,37,13.80
2018,09,26,09,38,13.90
2018,09,26,09,39,13.90
2018,09,26,09,40,13.90
2018,09,26,09,41,14.00
2018,09,26,09,42,14.10
2018,09,26,09,43,14.10
2018,09,26,09,44,14.20
2018,09,26,09,45,14.20
2018,09,26,09,46,14.20
2018,09,26,09,47,14.30
2018,09,26,09,48,14.30
2018,09,26,09,49,14.30
2018,09,26,09,50,14.30
2018,09,26,09,51,14.30
2018,09,26,09,52,14.20
2018,09,26,09,53,14.20
2018,09,26,09,54,14.20
2018,09,26,09,55,14.20
2018,09,26,09,56,14.10
2018,09,26,09,57,14.10
2018,09,26,09,58,14.10
2018,09,26,09,59,14.10
2018,09,26,10,00,14.10
2018,09,26,10,01,14.10
2018,09,26,10,02,14.10
2018,09,26,10,03,14.10
2018,09,26,10,04,14.20
2018,09,26,10,05,14.20
2018,09,26,10,06,14.30
2018,09,26,10,07,14.30
2018,09,26,10,08,14.30
2018,09,26,10,09,14.30
2018,09,26,10,10,14.30
2018,09,26,10,11,14.40
2018,09,26,10,12,14.40
2018,09,26,10,13,14.40
2018,09,26,10,14,14.40
2018,09,26,10,15,14.40
2018,09,26,10,16,14.40
2018,09,26,10,17,14.40
2018,09,26,10,18,14.40
2018,09,26,10,19,14.40
2018,09,26,10,20,14.40
2018,09,26,10,21,14.50
2018,09,26,10,22,14.40
2018,09,26,10,23,14.50
2018,09,26,10,24,14.50
2018,09,26,10,25,14.50
2018,09,26,10,26,14.60
2018,09,26,10,27,14.60
2018,09,26,10,28,14.60
2018,09,26,10,29,14.70
2018,09,26,10,30,14.70
2018,09,26,10,31,14.80
2018,09,26,10,32,14.80
2018,09,26,10,33,14.90
2018,09,26,10,34,14.90
2018,09,26,10,35,15.00
2018,09,26,10,36,15.00
2018,09,26,10,37,15.00
2018,09,26,10,38,15.10
2018,09,26,10,39,15.10
2018,09,26,10,40,15.10
2018,09,26,10,41,15.20
2018,09,26,10,42,15.30
2018,09,26,10,43,15.30
2018,09,26,10,44,15.40
2018,09,26,10,45,15.50
2018,09,26,10,46,15.50
2018,09,26,10,47,15.60
2018,09,26,10,48,15.70
2018,09,26,10,49,15.70
2018,09,26,10,50,15.80
2018,09,26,10,51,15.80
2018,09,26,10,52,15.80
2018,09,26,10,53,15.80
2018,09,26,10,54,15.80
2018,09,26,10,55,15.80
2018,09,26,10,56,15.80
2018,09,26,10,57,15.80
2018,09,26,10,58,15.80
2018,09,26,10,59,15.80
2018,09,26,11,00,15.80
2018,09,26,11,01,15.80
2018,09,26,11,02,15.80
2018,09,26,11,03,15.80
2018,09,26,11,04,15.80
2018,09,26,11,05,15.80
2018,09,26,11,06,15.80
2018,09,26,11,07,15.80
2018,09,26,11,08,15.80
2018,09,26,11,09,15.80
2018,09,26,11,10,15.90
2018,09,26,11,11,15.90
2018,09,26,11,12,15.80
2018,09,26,11,13,15.80
2018,09,26,11,14,15.80
2018,09,26,11,15,15.90
2018,09,26,11,16,15.90
2018,09,26,11,17,16.00
2018,09,26,11,18,16.00
2018,09,26,11,19,16.00
2018,09,26,11,20,16.10
2018,09,26,11,21,16.10
2018,09,26,11,22,16.10
2018,09,26,11,23,16.20
2018,09,26,11,24,16.20
2018,09,26,11,25,16.20
2018,09,26,11,26,16.20
2018,09,26,11,27,16.20
2018,09,26,11,28,16.20
2018,09,26,11,29,16.20
2018,09,26,11,30,16.30
2018,09,26,11,31,16.30
2018,09,26,11,32,16.30
2018,09,26,11,33,16.40
2018,09,26,11,34,16.40
2018,09,26,11,35,16.50
2018,09,26,11,36,16.50
2018,09,26,11,37,16.50
2018,09,26,11,38,16.50
2018,09,26,11,39,16.50
2018,09,26,11,40,16.50
2018,09,26,11,41,16.50
2018,09,26,11,42,16.50
2018,09,26,11,43,16.60
2018,09,26,11,44,16.60
2018,09,26,11,45,16.60
2018,09,26,11,46,16.70
2018,09,26,11,47,16.70
2018,09,26,11,48,16.70
2018,09,26,11,49,16.70
2018,09,26,11,50,16.70
2018,09,26,11,51,16.80
2018,09,26,11,52,16.80
2018,09,26,11,53,16.90
2018,09,26,11,54,16.90
2018,09,26,11,55,16.90
2018,09,26,11,56,17.00
2018,09,26,11,57,17.10
2018,09,26,11,58,17.10
2018,09,26,11,59,17.10
2018,09,26,12,00,17.10
2018,09,26,12,01,17.10
2018,09,26,12,02,17.20
2018,09,26,12,03,17.30
2018,09,26,12,04,17.30
2018,09,26,12,05,17.30
2018,09,26,12,06,17.30
2018,09,26,12,07,17.30
2018,09,26,12,08,17.20
2018,09,26,12,09,17.20
2018,09,26,12,10,17.20
2018,09,26,12,11,17.20
2018,09,26,12,12,17.30
2018,09,26,12,13,17.30
2018,09,26,12,14,17.20
2018,09,26,12,15,17.20
2018,09,26,12,16,17.20
2018,09,26,12,17,17.30
2018,09,26,12,18,17.30
2018,09,26,12,19,17.30
2018,09,26,12,20,17.30
2018,09,26,12,21,17.30
2018,09,26,12,22,17.30
2018,09,26,12,23,17.30
2018,09,26,12,24,17.30
2018,09,26,12,25,17.30
2018,09,26,12,26,17.30
2018,09,26,12,27,17.30
2018,09,26,12,28,17.30
2018,09,26,12,29,17.30
2018,09,26,12,30,17.30
2018,09,26,12,31,17.30
2018,09,26,12,32,17.30
2018,09,26,12,33,17.30
2018,09,26,12,34,17.40
2018,09,26,12,35,17.40
2018,09,26,12,36,17.40
2018,09,26,12,37,17.40
2018,09,26,12,38,17.50
2018,09,26,12,39,17.60
2018,09,26,12,40,17.60
2018,09,26,12,41,17.60
2018,09,26,12,42,17.60
2018,09,26,12,43,17.60
2018,09,26,12,44,17.70
2018,09,26,12,45,17.80
2018,09,26,12,46,17.80
2018,09,26,12,47,17.80
2018,09,26,12,48,17.80
2018,09,26,12,49,17.90
2018,09,26,12,50,17.90
2018,09,26,12,51,18.00
2018,09,26,12,52,18.00
2018,09,26,12,53,18.10
2018,09,26,12,54,18.10
2018,09,26,12,55,18.00
2018,09,26,12,56,17.90
2018,09,26,12,57,17.80
2018,09,26,12,58,17.80
2018,09,26,12,59,17.70
2018,09,26,13,00,17.70
2018,09,26,13,01,17.60
2018,09,26,13,02,17.60
2018,09,26,13,03,17.70
2018,09,26,13,04,17.70
2018,09,26,13,05,17.70
2018,09,26,13,06,17.70
2018,09,26,13,07,17.80
2018,09,26,13,08,17.80
2018,09,26,13,09,17.80
2018,09,26,13,10,17.80
2018,09,26,13,11,17.90
2018,09,26,13,12,17.90
2018,09,26,13,13,18.00
2018,09,26,13,14,18.10
2018,09,26,13,15,18.20
2018,09,26,13,16,18.30
2018,09,26,13,17,18.30
2018,09,26,13,18,18.40
2018,09,26,13,19,18.40
2018,09,26,13,20,18.50
2018,09,26,13,21,18.50
2018,09,26,13,22,18.50
2018,09,26,13,23,18.50
2018,09,26,13,24,18.40
2018,09,26,13,25,18.40
2018,09,26,13,26,18.40
2018,09,26,13,27,18.30
2018,09,26,13,28,18.20
2018,09,26,13,29,18.20
2018,09,26,13,30,18.20
2018,09,26,13,31,18.20
2018,09,26,13,32,18.20
2018,09,26,13,33,18.20
2018,09,26,13,34,18.30
2018,09,26,13,35,18.30
2018,09,26,13,36,18.30
2018,09,26,13,37,18.30
2018,09,26,13,38,18.30
2018,09,26,13,39,18.30
2018,09,26,13,40,18.30
2018,09,26,13,41,18.30
2018,09,26,13,42,18.30
2018,09,26,13,43,18.30
2018,09,26,13,44,18.40
2018,09,26,13,45,18.40
2018,09,26,13,46,18.40
2018,09,26,13,47,18.40
2018,09,26,13,48,18.50
2018,09,26,13,49,18.50
2018,09,26,13,50,18.40
2018,09,26,13,51,18.40
2018,09,26,13,52,18.40
2018,09,26,13,53,18.40
2018,09,26,13,54,18.40
2018,09,26,13,55,18.40
2018,09,26,13,56,18.40
2018,09,26,13,57,18.50
2018,09,26,13,58,18.50
2018,09,26,13,59,18.50
2018,09,26,14,00,18.40
2018,09,26,14,01,18.50
2018,09,26,14,02,18.50
2018,09,26,14,03,18.60
2018,09,26,14,04,18.60
2018,09,26,14,05,18.60
2018,09,26,14,06,18.60
2018,09,26,14,07,18.60
2018,09,26,14,08,18.60
2018,09,26,14,09,18.60
2018,09,26,14,10,18.70
2018,09,26,14,11,18.70
2018,09,26,14,12,18.80
2018,09,26,14,13,18.80
2018,09,26,14,14,18.80
2018,09,26,14,15,18.80
2018,09,26,14,16,18.90
2018,09,26,14,17,18.90
2018,09,26,14,18,18.90
2018,09,26,14,19,18.90
2018,09,26,14,20,18.90
2018,09,26,14,21,18.90
2018,09,26,14,22,18.90
2018,09,26,14,23,18.90
2018,09,26,14,24,18.90
2018,09,26,14,25,18.90
2018,09,26,14,26,18.90
2018,09,26,14,27,18.90
2018,09,26,14,28,18.90
2018,09,26,14,29,18.90
2018,09,26,14,30,18.90
2018,09,26,14,31,18.80
2018,09,26,14,32,18.90
2018,09,26,14,33,18.90
2018,09,26,14,34,18.90
2018,09,26,14,35,18.90
2018,09,26,14,36,18.90
2018,09,26,14,37,19.00
2018,09,26,14,38,18.90
2018,09,26,14,39,18.90
2018,09,26,14,40,18.90
2018,09,26,14,41,18.90
2018,09,26,14,42,18.90
2018,09,26,14,43,18.90
2018,09,26,14,44,19.00
2018,09,26,14,45,19.00
2018,09,26,14,46,19.00
2018,09,26,14,47,19.00
2018,09,26,14,48,19.00
2018,09,26,14,49,19.00
2018,09,26,14,50,19.00
2018,09,26,14,51,19.00
2018,09,26,14,52,19.00
2018,09,26,14,53,18.90
2018,09,26,14,54,18.90
2018,09,26,14,55,18.90
2018,09,26,14,56,18.90
2018,09,26,14,57,18.90
2018,09,26,14,58,18.90
2018,09,26,14,59,18.90
2018,09,26,15,00,18.90
2018,09,26,15,01,18.90
2018,09,26,15,02,18.90
2018,09,26,15,03,18.90
2018,09,26,15,04,19.00
2018,09,26,15,05,19.00
2018,09,26,15,06,19.10
2018,09,26,15,07,19.10
2018,09,26,15,08,19.10
2018,09,26,15,09,19.10
2018,09,26,15,10,19.10
2018,09,26,15,11,19.20
2018,09,26,15,12,19.20
2018,09,26,15,13,19.20
2018,09,26,15,14,19.20
2018,09,26,15,15,19.20
2018,09,26,15,16,19.20
2018,09,26,15,17,19.20
2018,09,26,15,18,19.20
2018,09,26,15,19,19.20
2018,09,26,15,20,19.20
2018,09,26,15,21,19.10
2018,09,26,15,22,19.10
2018,09,26,15,23,19.10
2018,09,26,15,24,19.10
2018,09,26,15,25,19.10
2018,09,26,15,26,19.10
2018,09,26,15,27,19.10
2018,09,26,15,28,19.10
2018,09,26,15,29,19.10
2018,09,26,15,30,19.20
2018,09,26,15,31,19.20
2018,09,26,15,32,19.20
2018,09,26,15,33,19.20
2018,09,26,15,34,19.30
2018,09,26,15,35,19.30
2018,09,26,15,36,19.30
2018,09,26,15,37,19.40
2018,09,26,15,38,19.40
2018,09,26,15,39,19.40
2018,09,26,15,40,19.40
2018,09,26,15,41,19.40
2018,09,26,15,42,19.40
2018,09,26,15,43,19.40
2018,09,26,15,44,19.40
2018,09,26,15,45,19.40
2018,09,26,15,46,19.40
2018,09,26,15,47,19.40
2018,09,26,15,48,19.50
2018,09,26,15,49,19.50
2018,09,26,15,50,19.50
2018,09,26,15,51,19.50
2018,09,26,15,52,19.50
2018,09,26,15,53,19.50
2018,09,26,15,54,19.50
2018,09,26,15,55,19.50
2018,09,26,15,56,19.40
2018,09,26,15,57,19.40
2018,09,26,15,58,19.40
2018,09,26,15,59,19.40
2018,09,26,16,00,19.40
2018,09,26,16,01,19.30
2018,09,26,16,02,19.30
2018,09,26,16,03,19.30
2018,09,26,16,04,19.30
2018,09,26,16,05,19.30
2018,09,26,16,06,19.30
2018,09,26,16,07,19.30
2018,09,26,16,08,19.30
2018,09,26,16,09,19.30
2018,09,26,16,10,19.30
2018,09,26,16,11,19.40
2018,09,26,16,12,19.40
2018,09,26,16,13,19.40
2018,09,26,16,14,19.30
2018,09,26,16,15,19.40
2018,09,26,16,16,19.40
2018,09,26,16,17,19.40
2018,09,26,16,18,19.40
2018,09,26,16,19,19.40
2018,09,26,16,20,19.40
2018,09,26,16,21,19.40
2018,09,26,16,22,19.40
2018,09,26,16,23,19.40
2018,09,26,16,24,19.40
2018,09,26,16,25,19.40
2018,09,26,16,26,19.30
2018,09,26,16,27,19.30
2018,09,26,16,28,19.30
2018,09,26,16,29,19.30
2018,09,26,16,30,19.30
2018,09,26,16,31,19.30
2018,09,26,16,32,19.40
2018,09,26,16,33,19.40
2018,09,26,16,34,19.40
2018,09,26,16,35,19.40
2018,09,26,16,36,19.40
2018,09,26,16,37,19.40
2018,09,26,16,38,19.40
2018,09,26,16,39,19.40
2018,09,26,16,40,19.40
2018,09,26,16,41,19.40
2018,09,26,16,42,19.40
2018,09,26,16,43,19.40
2018,09,26,16,44,19.30
2018,09,26,16,45,19.30
2018,09,26,16,46,19.40
2018,09,26,16,47,19.40
2018,09,26,16,48,19.40
2018,09,26,16,49,19.40
2018,09,26,16,50,19.40
2018,09,26,16,51,19.40
2018,09,26,16,52,19.50
2018,09,26,16,53,19.50
2018,09,26,16,54,19.50
2018,09,26,16,55,19.50
2018,09,26,16,56,19.60
2018,09,26,16,57,19.60
2018,09,26,16,58,19.60
2018,09,26,16,59,19.60
2018,09,26,17,00,19.60
2018,09,26,17,01,19.60
2018,09,26,17,02,19.50
2018,09,26,17,03,19.50
2018,09,26,17,04,19.50
2018,09,26,17,05,19.50
2018,09,26,17,06,19.40
2018,09,26,17,07,19.40
2018,09,26,17,08,19.40
2018,09,26,17,09,19.40
2018,09,26,17,10,19.40
2018,09,26,17,11,19.40
2018,09,26,17,12,19.30
2018,09,26,17,13,19.30
2018,09,26,17,14,19.30
2018,09,26,17,15,19.30
2018,09,26,17,16,19.30
2018,09,26,17,17,19.30
2018,09,26,17,18,19.30
2018,09,26,17,19,19.30
2018,09,26,17,20,19.30
2018,09,26,17,21,19.30
2018,09,26,17,22,19.40
2018,09,26,17,23,19.40
2018,09,26,17,24,19.30
2018,09,26,17,25,19.30
2018,09,26,17,26,19.30